Regional Weather Roundup
Issued by NWS Wakefield, VA

Home | Current Version | Previous Version | Graphics & Text | Print | Product List | Glossary On
Versions: 1 2 3 4 5 6 7 8 9 10 11 12 13 14 15 16 17 18 19 20 21 22 23 24 25 26 27 28 29 30 31 32 33 34 35 36 37 38 39 40 41 42 43 44 45 46 47 48 49 50
000
ASUS41 KAKQ 202110
RWRAKQ

REGIONAL WEATHER ROUNDUP
NATIONAL WEATHER SERVICE WAKEFIELD VA
500 PM EDT WED AUG 20 2014

Note: "fair" indicates few or no clouds below 12,000 feet with no
significant weather and/or obstructions to visibility. * = Denotes
station may not report precipitation (e.g., rain,snow,etc.),
thunder or fog.

VAZ042-051-052>054-056-202200-
NORTHERN VIRGINIA

CITY           SKY/WX    TMP DP  RH WIND       PRES   REMARKS
WASH NATIONAL  PTSUNNY   84  60  44 S7        29.96R
DULLES         TSTM      70  69  97 N7        29.98R VSB 1
FORT BELVOIR   MOSUNNY   80  62  54 E5        29.96R
QUANTICO       PTSUNNY   82  65  56 SE14      29.95R
FREDERICKSBRG* MOSUNNY   89  65  45 SE10      29.93S
STAFFORD*      CLOUDY    84  67  57 E7        29.98S
WARRENTON      CLOUDY    83  74  73 S5        29.94R
CULPEPER*      PTSUNNY  N/A N/A N/A CALM      29.95R
MANASSAS*      NOT AVBL
LEESBURG*      CLOUDY    72  72 100 SW3       29.98S
WINCHESTER     PTSUNNY   79  70  73 E7        29.96R
$$

VAZ048-049-060>072-079>083-202200-
CENTRAL AND SOUTH CENTRAL VIRGINIA...AND NORTH CENTRAL NORTH CAROLINA

CITY           SKY/WX    TMP DP  RH WIND       PRES   REMARKS
RICHMOND       MOSUNNY   86  67  52 S7        29.95R
CHESTERFIELD*  PTCLDY    86  64  48 S7        29.97R
HANOVER        PTSUNNY   85  67  54 VRB6      29.96S
TAPPAHANNOCK*  SUNNY     84  59  42 E10       29.97S
CHARLOTTSVILLE MOSUNNY   85  70  60 SW10      29.94S
ORANGE*        MOSUNNY   82  70  65 SE6       29.95S
LOUISA*        MOSUNNY   84  72  65 SW6       29.94S
FARMVILLE*     MOSUNNY   86  72  62 S8        29.94R
SOUTH HILL*    SUNNY     86  72  62 SW7       30.02S
ROANOKE RAPIDS CLEAR     86  72  62 W6        29.97R
RALEIGH        MOSUNNY   89  71  55 SW5       29.97S HX  95
$$

VAZ088>098-202200-
SOUTHEAST VIRGINIA

CITY           SKY/WX    TMP DP  RH WIND       PRES   REMARKS
NORFOLK        SUNNY     80  69  69 E10       29.97R
VIRGINIA BEACH MOSUNNY   79  69  71 E8        29.97R
NORFOLK NAVAL  MOSUNNY   81  69  67 NE9       29.99R
WEST POINT*    SUNNY     86  61  42 E9        29.98R
NEWPORT NEWS   SUNNY     86  68  54 E7        29.98R
LANGLEY AFB    SUNNY     81  69  67 E6        29.98R
FORT EUSTIS    SUNNY     83  63  50 S5        29.96R
WILLIAMSBURG*  SUNNY     88  72  58 SE6       29.97S
FRANKLIN*      MOSUNNY   88  70  55 E5        29.95F
WAKEFIELD      MOSUNNY   86  69  56 SE3       29.95S
$$

VAZ020-022-025-037-045-202200-
WESTERN AND SOUTHWEST VIRGINIA

CITY           SKY/WX    TMP DP  RH WIND       PRES   REMARKS
STAUNTON*      MOSUNNY   87  64  44 SW8       29.97S
HOT SPRINGS VA PTSUNNY   74  61  62 W10       30.14S
LYNCHBURG      MOSUNNY   84  71  65 S6        29.99S
DANVILLE       MOSUNNY   87  71  58 SW6       29.97S
MARTINSVILLE   SUNNY     89  67  47 CALM      30.00S
ROANOKE        MOSUNNY   85  65  51 S5        29.99S
BLACKSBURG     SUNNY     84  72  65 SW5       30.05F
DUBLIN*        MOSUNNY   83  67  58 W7        30.05S
MARION*        PTSUNNY   80  69  68 W14       30.10S
HILLSVILLE*    SUNNY     81  65  58 NW12G18   30.08S
RICHLANDS*     MOCLDY    83  71  66 W8        30.08S
WISE*          PTSUNNY   77  68  73 SW9       30.09F
ABINGDON*      MOSUNNY   82  71  68 W8        30.07F
$$

MDZ021>025-VAZ099-100-202200-
SOUTHERN MARYLAND AND THE DELMARVA PENINSULA

CITY           SKY/WX    TMP DP  RH WIND       PRES   REMARKS
PATUXENT RIVER NOT AVBL
BAY BRIDGE APT   N/A     81  63  54 SW5       29.97R
LEONARDTOWN    SUNNY     81  61  50 SE6       29.99R
DOVER          SUNNY     81  56  42 E6        29.98R
GEORGETOWN     SUNNY     81  61  50 SE8       29.99R
EASTON         PTSUNNY   86  64  48 S8        30.00S
CAMBRIDGE      PTSUNNY   86  61  42 S6        29.96S
SALISBURY      SUNNY     83  62  49 SE7       29.98R
OCEAN CITY     SUNNY     77  64  64 E7        30.00R
WALLOPS ISLAND SUNNY     79  67  66 E7        29.99R
ACCOMACK*      SUNNY     79  64  61 E3        29.98S
$$

NCZ012>017-030>032-202200-
EASTERN NORTH CAROLINA

CITY           SKY/WX    TMP DP  RH WIND       PRES   REMARKS
ELIZABETH CITY SUNNY     83  70  64 E5        29.97R
AHOSKIE*       MOSUNNY   85  71  63 S3        29.97R
EDENTON*       SUNNY     83  72  68 E5        29.97R
CURRITUCK*     SUNNY     84  68  57 E3        29.98R
KILL DEVIL HLS SUNNY     80  71  72 NE6       29.96R
MANTEO         SUNNY     81  72  74 NE9       29.98R
CAPE HATTERAS  CLOUDY    81  73  76 E6        29.97S
GOLDSBORO      MOSUNNY   88  76  67 VRB1      29.95S HX  99
WASHINGTON     MOSUNNY   87  71  57 W6        29.97R
GREENVILLE     MOSUNNY   86  72  62 CALM      29.99S
NEW BERN       PTSUNNY   88  71  57 W3        29.98R
WILMINGTON     CLOUDY    78  73  84 CALM      29.98F
$$

VAZ048-202200-
ELSEWHERE

CITY           SKY/WX    TMP DP  RH WIND       PRES   REMARKS
HARRISBURG PA  LGT RAIN  76  72  87 CALM      29.96R
BALTIMORE      PTSUNNY   81  61  50 SE5       29.96R
ANNAPOLIS      CLOUDY    82  64  54 SE9       29.96S
ANDREWS AFB    MOSUNNY   81  63  53 SE9       29.97R
WILMINGTON DE  PTSUNNY   81  65  58 SE12      29.98S
PHILADELPHIA   CLOUDY    84  63  49 S5        29.97R
WILDWOOD NJ*   SUNNY     77  61  57 SE8       30.01R
ATLANTIC CITY  SUNNY     77  62  59 SE10      29.99S
HENDERSON NC   SUNNY     86  69  57 S6        29.98R
GREENSBORO     PTSUNNY   86  69  56 W8        29.98S
ROCKY MOUNT    MOSUNNY   87  71  58 CALM      29.98R
FAYETTEVILLE   PTSUNNY   90  72  55 S7        29.97R HX  97
CHARLOTTE      PTSUNNY   88  69  53 SW6       29.98F
$$

VAZ100-202200-
MARINE

STATION/POSITION TIME  TEMP    WIND        PRES    WAVE   SWELL
                       AIR SEA DIR/SP/G            HT/PER HT/PER
                 (UTC) (F)     (DEG/KT/KT) (MB)    (FT/S) (FT/S)
44066 TX TWR #4  2100   72 73   50/ 12/ 14 1015.4R   3/ 6   2/ 6
CAPE MAY NJ      2100   75 81  100/  8/ 11 1015.0R
LEWES DE         2100   75 77  130/  6/ 11 1015.3R
15NM E FENWICK I 2100   74 76              1015.4R   3/ 7
OCEAN-CITY-INLET 2100   76 76  120/  4/  7 1015.2S
WACHAPREAGUE VA  2100   76 80   80/  6/  8 1015.3R
THOMAS POINT MD  2100   79 79  200/ 11/ 11 1015.3R
GOOSES REEF MD   2100   79     190/ 12/ 14 1015.0R
COVE POINT MD    2100   78     190/ 12/ 13 1014.8R
SOLOMONS ISLAND  2100      81                N/A
BISHOPS HEAD MD  2100   80 81  160/ 11/ 12 1014.5S
PINEY POINT MD   2100          150/ 12/ 13   N/A
POTOMAC MD       2100   79     180/ 10/ 12 1014.5S
CAMBRIDGE MD     2100   83 78  100/  6/  8 1014.2S
LEWISETTA VA     2100   81 81  140/  9/ 11 1014.7S
RAPPAHANNOCK LGT 2100          140/  6/  7 1015.6R
STINGRAY PT      2100   79     180/  2/  4 1015.8S
YORK RVR RNG VA  2100   78     150/  7/  8 1014.6R
YORKTOWN VA      2100   78 81   80/ 10/ 11 1014.8
JAMESTOWN VA     2100   81     160/  6/ 10   N/A
DOMINION TERM VA 2100   78      70/  9/ 12 1014.9R
KIPTOPEKE VA     2100      83  120/  8/ 10   N/A
CHES BAY BRIDGE  2100   77 78   80/  9/ 10 1014.5R
CAPE HENRY VA    2100   77      90/  6/  8 1013.8R
CHESAPEAKE LGHT  2000   76      80/  9/  9 1015.4S
WILLOUBY STN VA  2100   77      70/  8/ 10 1013.8R
S CRANEY ISL VA  2100           10/  9/ 11 1014.6R
CAPE HENRY BUOY  2100      78                N/A     3/ 5
1ST LANDING BUOY 2100   77      90/  8/ 10 1014.6R
CAPE CHARLES BUO 2100      78                N/A     3/ 5   2/ 5
OFFSHORE WE BUOY 2100      78                N/A     3/ 5   2/ 5
64NM E OF VA BCH 2100   78 79   50/  8/  8 1014.4R   3/ 5   2/ 5
DUCK PIER NC     2100   78 79   70/  8/  8 1014.2R
44056 DUCK FRF   2100                        N/A     3/ 6
OREGON INLET NC  2100   80 82   40/  7/ 11 1014.9R
HATTERAS NC      2100   81 83   50/  5/  7 1015.4R
DIAMOND SHLS NC  2100   78     310/  6/  8 1014.8R   2/ 7   2/ 7
CAPE LOOKOUT NC  2000   81     170/  8/  9 1014.7F
$$



USA.gov is the U.S. government's official web portal to all federal, state and local government web resources and services.